Location: Ocean City
(38.3360°N, 75.0850°W)
Time: 14:04:04
(UTC-05:00)

Explorer 11/Cluster Stage 4 - Pass Details

Date: 20 November 2019
Orbit: 467 x 1259 km, 28.8° (Epoch: 13 December)

Event Time Altitude Azimuth Distance (km) Brightness Sun altitude
Rises 23:20:09 0° 262° (W) 3,633 - -70.7°
Reaches altitude 10° 23:23:05 10° 250° (WSW) 2,812 - -70.8°
Maximum altitude 23:28:43 26° 196° (SSW) 2,062 - -71.1°
Drops below altitude 10° 23:34:59 10° 144° (SE) 3,162 - -71.4°
Sets 23:38:31 0° 133° (SE) 4,175 - -71.4°
